Location: Middle Street
(51.7167°N, 0.0333°E)
Time: 02:11:02
(UTC+00:00)

Cosmos 2112 Rocket - Pass Details

Date: 20 January 2021
Orbit: 757 x 786 km, 74.1° (Epoch: 28 February)

Event Time Altitude Azimuth Distance (km) Brightness Sun altitude
Rises 18:52:19 0° 335° (NNW) 3,260 7.5 -21.8°
Reaches altitude 10° 18:54:43 10° 336° (NNW) 2,324 6.7 -22.2°
Maximum altitude 19:00:01 84° 65° (ENE) 776 3.9 -23.0°
Enters shadow 19:02:19 35° 151° (SSE) 1,227 4.8 -23.4°
